GW6554 Weather Reports


Display with metric or nautical units.
time (UTC)temp
F
wind
direction
speed
MPH
gust
MPH
rain 1hr
in
rain 24hr
in
rain mn
in
humidity
%
barometer
mb
20260505183354 83 232 5.0 7.0 0.00 0.00 0.00 67 1001.8
20260505182851 83 182 7.0 10.0 0.00 0.00 0.00 68 1001.8
20260505182348 83 204 5.0 7.0 0.00 0.00 0.00 68 1001.7
20260505181845 83 200 6.0 8.0 0.00 0.00 0.00 68 1001.7
20260505181342 83 238 5.0 6.0 0.00 0.00 0.00 67 1002.0
20260505180839 83 230 3.0 3.0 0.00 0.00 0.00 68 1001.8
20260505180335 82 167 3.0 5.0 0.00 0.00 0.00 70 1001.9
20260505175832 82 182 8.0 10.0 0.00 0.00 0.00 69 1001.8
20260505175328 82 202 5.0 7.0 0.00 0.00 0.00 69 1001.7
20260505174825 82 209 4.0 5.0 0.00 0.00 0.00 70 1001.8
20260505174322 81 226 7.0 9.0 0.00 0.00 0.00 71 1002.0
20260505173818 81 193 6.0 9.0 0.00 0.00 0.00 71 1001.9
20260505173315 81 211 11.0 13.0 0.00 0.00 0.00 70 1002.0
20260505172812 80 244 4.0 5.0 0.00 0.00 0.00 72 1001.8
20260505172310 80 215 10.0 11.0 0.00 0.00 0.00 71 1002.0
20260505171804 81 270 7.0 8.0 0.00 0.00 0.00 71 1002.1
20260505171301 79 189 10.0 14.0 0.00 0.00 0.00 73 1002.2
20260505170757 79 202 5.0 8.0 0.00 0.00 0.00 73 1002.0
20260505170255 80 238 5.0 7.0 0.00 0.00 0.00 73 1001.9
20260505165749 80 189 4.0 7.0 0.00 0.00 0.00 72 1002.2
20260505165246 80 161 4.0 5.0 0.00 0.00 0.00 73 1001.9
20260505164741 80 216 4.0 6.0 0.00 0.00 0.00 73 1001.9
20260505164239 79 175 5.0 6.0 0.00 0.00 0.00 73 1001.9
20260505163737 78 162 6.0 8.0 0.00 0.00 0.00 74 1002.0
20260505163235 79 215 9.0 14.0 0.00 0.00 0.00 74 1001.8
20260505162732 78 175 6.0 8.0 0.00 0.00 0.00 74 1001.9
20260505162229 78 200 10.0 13.0 0.00 0.00 0.00 74 1001.7
20260505161726 78 136 2.0 3.0 0.00 0.00 0.00 74 1001.9
20260505161224 78 194 4.0 7.0 0.00 0.00 0.00 75 1001.9
20260505160721 78 200 12.0 17.0 0.00 0.00 0.00 75 1001.6
20260505160218 78 223 5.0 6.0 0.00 0.00 0.00 75 1001.8
20260505153157 77 228 9.0 10.0 0.00 0.00 0.00 77 1001.4
20260505152654 77 202 9.0 14.0 0.00 0.00 0.00 76 1001.6
20260505152150 76 226 9.0 14.0 0.00 0.00 0.00 78 1001.6
20260505151645 76 197 11.0 15.0 0.00 0.00 0.00 77 1001.6
20260505151143 76 229 6.0 9.0 0.00 0.00 0.00 78 1001.7
20260505150639 76 193 6.0 8.0 0.00 0.00 0.00 79 1001.6
20260505150136 76 190 6.0 8.0 0.00 0.00 0.00 79 1001.6
20260505140605 73 198 5.0 6.0 0.00 0.00 0.00 83 1001.3
20260505125018 72 191 4.0 6.0 0.00 0.00 0.00 85 1000.6
20260505124515 72 238 5.0 7.0 0.00 0.00 0.00 85 1000.5
20260505124011 72 195 7.0 7.0 0.00 0.00 0.00 85 1000.6
20260505123508 72 205 2.0 3.0 0.00 0.00 0.00 85 1000.6
20260505123004 71 209 5.0 8.0 0.00 0.00 0.00 85 1000.3
20260505122501 71 189 3.0 3.0 0.00 0.00 0.00 85 1000.2
20260505121958 72 251 6.0 9.0 0.00 0.00 0.00 85 1000.0
20260505121454 72 197 6.0 8.0 0.00 0.00 0.00 85 1000.2
20260505120950 72 148 3.0 3.0 0.00 0.00 0.00 85 1000.2
20260505120447 72 158 4.0 6.0 0.00 0.00 0.00 85 1000.1
20260505115946 72 183 6.0 7.0 0.00 0.00 0.00 85 999.8
20260505115443 72 220 2.0 2.0 0.00 0.00 0.00 84 1000.2
20260505114941 72 184 9.0 15.0 0.00 0.00 0.00 84 999.7
20260505114432 72 184 8.0 10.0 0.00 0.00 0.00 85 999.9
20260505113928 72 193 5.0 8.0 0.00 0.00 0.00 85 1000.0
20260505113425 72 212 7.0 9.0 0.00 0.00 0.00 85 999.8
20260505112921 72 238 8.0 9.0 0.00 0.00 0.00 84 1000.2
20260505112419 72 219 9.0 13.0 0.00 0.00 0.00 84 999.7
20260505111914 72 215 9.0 11.0 0.00 0.00 0.00 84 999.8
20260505111415 72 219 8.0 15.0 0.00 0.00 0.00 83 999.7
20260505110911 72 244 5.0 7.0 0.00 0.00 0.00 84 1000.2
20260505110408 72 220 5.0 6.0 0.00 0.00 0.00 84 1000.0
20260505101838 71 150 3.0 5.0 0.00 0.00 0.00 85 1000.0
20260505101334 71 269 6.0 8.0 0.00 0.00 0.00 85 1000.0
20260505100830 71 240 3.0 5.0 0.00 0.00 0.00 85 999.6
20260505100327 71 169 5.0 8.0 0.00 0.00 0.00 85 999.8
20260505095822 71 222 5.0 8.0 0.00 0.00 0.00 85 999.9
20260505095320 71 236 4.0 6.0 0.00 0.00 0.00 85 999.6
20260505094816 71 191 7.0 9.0 0.00 0.00 0.00 85 1000.3
20260505094313 71 169 6.0 7.0 0.00 0.00 0.00 85 1000.2
20260505093808 71 237 3.0 3.0 0.00 0.00 0.00 85 1000.3
20260505093307 71 196 4.0 7.0 0.00 0.00 0.00 85 1000.3
20260505092803 71 203 6.0 8.0 0.00 0.00 0.00 85 1000.1
20260505092304 71 210 6.0 8.0 0.00 0.00 0.00 85 1000.2
20260505091758 71 178 5.0 7.0 0.00 0.00 0.00 85 1000.4
20260505091256 71 195 4.0 7.0 0.00 0.00 0.00 85 1000.5
20260505090754 71 179 10.0 14.0 0.00 0.00 0.00 85 1000.3
20260505090252 71 220 5.0 8.0 0.00 0.00 0.00 85 1000.3
20260505085749 71 198 7.0 9.0 0.00 0.00 0.00 85 1000.3
20260505085247 71 201 5.0 6.0 0.00 0.00 0.00 86 1000.1
20260505084744 71 212 6.0 8.0 0.00 0.00 0.00 86 1000.3
20260505084243 71 185 4.0 7.0 0.00 0.00 0.00 86 1000.2
20260505083739 71 213 6.0 7.0 0.00 0.00 0.00 86 1000.2
20260505083236 71 212 5.0 10.0 0.00 0.00 0.00 85 1000.5
20260505082732 71 199 6.0 8.0 0.00 0.00 0.00 85 1000.5
20260505082230 71 220 9.0 11.0 0.00 0.00 0.00 85 1000.6
20260505081725 71 188 8.0 11.0 0.00 0.00 0.00 85 1000.5
20260505081223 71 207 7.0 9.0 0.00 0.00 0.00 85 1000.5
20260505080720 71 104 0.0 1.0 0.00 0.00 0.00 84 1000.3
20260505080215 71 215 9.0 13.0 0.00 0.00 0.00 84 1000.6
20260505075711 71 205 3.0 5.0 0.00 0.00 0.00 84 1000.6
20260505075209 71 175 11.0 14.0 0.00 0.00 0.00 83 1000.5
20260505074706 71 207 3.0 5.0 0.00 0.00 0.00 83 1000.5
20260505074203 72 210 7.0 9.0 0.00 0.00 0.00 83 1000.6
20260505073700 72 187 7.0 8.0 0.00 0.00 0.00 83 1000.7
20260505073158 72 261 3.0 7.0 0.00 0.00 0.00 82 1000.7
20260505072653 72 188 4.0 6.0 0.00 0.00 0.00 82 1000.9
20260505072150 72 233 5.0 7.0 0.00 0.00 0.00 82 1001.1
20260505071646 72 187 5.0 6.0 0.00 0.00 0.00 81 1001.2
20260505071144 72 186 7.0 11.0 0.00 0.00 0.00 81 1001.3
20260505070641 72 203 6.0 7.0 0.00 0.00 0.00 81 1001.4
20260505070137 72 208 4.0 6.0 0.00 0.00 0.00 80 1001.4
20260505065633 72 202 5.0 7.0 0.00 0.00 0.00 80 1001.3
20260505065130 72 190 3.0 6.0 0.00 0.00 0.00 80 1001.4
20260505064627 72 195 8.0 9.0 0.00 0.00 0.00 80 1001.5
20260505064125 72 180 7.0 8.0 0.00 0.00 0.00 79 1001.6
20260505063622 72 191 7.0 9.0 0.00 0.00 0.00 79 1001.6
20260505063118 72 189 4.0 7.0 0.00 0.00 0.00 79 1001.7
20260505062615 72 196 4.0 6.0 0.00 0.00 0.00 79 1001.7
20260505062112 72 214 4.0 6.0 0.00 0.00 0.00 79 1001.7
20260505061609 72 151 5.0 8.0 0.00 0.00 0.00 79 1001.9
20260505061107 72 203 6.0 9.0 0.00 0.00 0.00 79 1001.9
20260505060604 72 117 4.0 5.0 0.00 0.00 0.00 79 1001.7
20260505055556 72 200 5.0 7.0 0.00 0.00 0.00 78 1001.8
20260505055053 72 128 2.0 3.0 0.00 0.00 0.00 78 1001.7
20260505054550 72 214 5.0 7.0 0.00 0.00 0.00 78 1002.0
20260505054049 73 203 3.0 5.0 0.00 0.00 0.00 77 1002.1
20260505053545 72 120 2.0 3.0 0.00 0.00 0.00 77 1001.9
20260505053042 73 205 4.0 8.0 0.00 0.00 0.00 77 1002.1
20260505052539 73 195 5.0 7.0 0.00 0.00 0.00 77 1002.1
20260505052037 73 193 6.0 10.0 0.00 0.00 0.00 76 1002.1
20260505051533 73 232 4.0 7.0 0.00 0.00 0.00 76 1002.2
20260505051031 73 206 9.0 11.0 0.00 0.00 0.00 76 1002.2
20260505050529 73 161 5.0 7.0 0.00 0.00 0.00 76 1002.0
20260505041457 74 173 4.0 7.0 0.00 0.00 0.00 73 1002.7
20260505040954 74 186 3.0 6.0 0.00 0.00 0.00 73 1002.7
20260505040451 74 177 3.0 5.0 0.00 0.00 0.00 73 1002.8
20260505035948 74 222 4.0 7.0 0.00 0.00 0.00 73 1002.7
20260505035444 74 185 2.0 2.0 0.00 0.00 0.00 73 1002.8
20260505034942 74 163 2.0 2.0 0.00 0.00 0.00 72 1002.7
20260505034438 74 165 2.0 3.0 0.00 0.00 0.00 72 1002.8
20260505033935 74 248 6.0 7.0 0.00 0.00 0.00 72 1002.9
20260505033432 74 221 3.0 6.0 0.00 0.00 0.00 71 1002.8
20260505032930 75 204 8.0 10.0 0.00 0.00 0.00 71 1002.9
20260505032427 75 193 3.0 3.0 0.00 0.00 0.00 71 1003.0
20260505031923 75 110 7.0 10.0 0.00 0.00 0.00 71 1002.9
20260505031420 75 170 3.0 3.0 0.00 0.00 0.00 71 1003.0
20260505030917 75 191 5.0 8.0 0.00 0.00 0.00 71 1002.8
20260505030413 75 172 2.0 5.0 0.00 0.00 0.00 71 1002.9
20260505025908 75 216 6.0 8.0 0.00 0.00 0.00 71 1003.2
20260505025406 75 170 3.0 3.0 0.00 0.00 0.00 70 1003.0
20260505024905 75 224 4.0 7.0 0.00 0.00 0.00 70 1002.9
20260505024402 75 216 3.0 5.0 0.00 0.00 0.00 70 1002.8
20260505023859 75 151 2.0 3.0 0.00 0.00 0.00 70 1002.8
20260505023356 75 220 3.0 5.0 0.00 0.00 0.00 70 1002.4
20260505022853 75 207 3.0 5.0 0.00 0.00 0.00 70 1002.6
20260505022350 75 123 3.0 3.0 0.00 0.00 0.00 70 1002.6
20260505021848 75 196 6.0 8.0 0.00 0.00 0.00 70 1002.7
20260505021344 75 179 5.0 6.0 0.00 0.00 0.00 69 1002.4
20260505020840 75 177 2.0 2.0 0.00 0.00 0.00 69 1002.4
20260505020335 75 133 3.0 3.0 0.00 0.00 0.00 69 1002.4
20260505015832 75 192 4.0 6.0 0.00 0.00 0.00 69 1002.3
20260505015329 75 95 2.0 2.0 0.00 0.00 0.00 69 1002.4
20260505014827 75 200 1.0 2.0 0.00 0.00 0.00 68 1002.0
20260505014324 76 187 8.0 11.0 0.00 0.00 0.00 68 1002.2
20260505013820 76 279 4.0 8.0 0.00 0.00 0.00 68 1002.4
20260505013317 76 183 3.0 3.0 0.00 0.00 0.00 67 1002.3
20260505012816 76 205 3.0 5.0 0.00 0.00 0.00 67 1002.1
20260505012313 76 207 3.0 3.0 0.00 0.00 0.00 67 1002.2
20260505011809 76 234 9.0 10.0 0.00 0.00 0.00 66 1002.2
20260505011306 76 207 3.0 3.0 0.00 0.00 0.00 66 1002.2
20260505010802 77 98 1.0 2.0 0.00 0.00 0.00 66 1002.1
20260505010258 77 163 3.0 5.0 0.00 0.00 0.00 66 1002.3
20260505005754 77 141 4.0 7.0 0.00 0.00 0.00 65 1002.2
20260505005252 77 133 4.0 5.0 0.00 0.00 0.00 65 1001.8
20260505004749 77 199 7.0 9.0 0.00 0.00 0.00 64 1001.9
20260505004245 77 226 7.0 14.0 0.00 0.00 0.00 64 1001.9
20260505003742 77 154 4.0 7.0 0.00 0.00 0.00 64 1002.0
20260505003240 77 202 4.0 7.0 0.00 0.00 0.00 64 1002.3
20260505002736 77 228 2.0 5.0 0.00 0.00 0.00 64 1002.2
20260505002233 77 230 7.0 9.0 0.00 0.00 0.00 63 1002.2
20260505001731 78 183 9.0 13.0 0.00 0.00 0.00 63 1002.3
20260505001228 78 226 3.0 3.0 0.00 0.00 0.00 62 1002.4
20260505000725 78 198 10.0 13.0 0.00 0.00 0.00 62 1002.1
20260505000223 78 215 9.0 13.0 0.00 0.00 0.00 62 1002.2
20260504235719 78 232 12.0 15.0 0.00 0.00 0.00 62 1002.1
20260504235215 78 232 4.0 6.0 0.00 0.00 0.00 62 1002.3
20260504234713 78 168 3.0 5.0 0.00 0.00 0.00 62 1002.4
20260504234210 78 188 7.0 9.0 0.00 0.00 0.00 61 1002.8
20260504233706 78 204 9.0 15.0 0.00 0.00 0.00 62 1002.4
20260504233202 78 184 7.0 9.0 0.00 0.00 0.00 61 1002.7
20260504232700 79 212 3.0 5.0 0.00 0.00 0.00 61 1002.5
20260504232156 79 218 4.0 7.0 0.00 0.00 0.00 60 1002.6
20260504231653 79 78 7.0 15.0 0.00 0.00 0.00 61 1002.6
20260504231149 79 227 3.0 3.0 0.00 0.00 0.00 61 1002.8
20260504230646 80 200 9.0 16.0 0.00 0.00 0.00 60 1002.7
20260504230145 80 195 3.0 5.0 0.00 0.00 0.00 60 1002.6
20260504225643 80 159 4.0 6.0 0.00 0.00 0.00 59 1002.6
20260504225138 81 200 10.0 14.0 0.00 0.00 0.00 58 1002.8
20260504224635 80 184 7.0 10.0 0.00 0.00 0.00 58 1002.9
20260504224132 81 251 3.0 7.0 0.00 0.00 0.00 58 1003.0
20260504223629 81 211 3.0 5.0 0.00 0.00 0.00 58 1003.0
20260504223120 80 230 9.0 13.0 0.00 0.00 0.00 58 1002.8
20260504222617 80 231 3.0 5.0 0.00 0.00 0.00 58 1002.9
20260504222114 81 175 6.0 8.0 0.00 0.00 0.00 57 1002.7
20260504221611 80 214 8.0 10.0 0.00 0.00 0.00 57 1002.7
20260504221108 81 262 6.0 11.0 0.00 0.00 0.00 57 1002.9
20260504220604 80 195 6.0 8.0 0.00 0.00 0.00 58 1003.0
20260504215558 80 185 7.0 9.0 0.00 0.00 0.00 57 1003.2
20260504215056 80 150 6.0 10.0 0.00 0.00 0.00 57 1003.3
20260504214551 82 159 7.0 13.0 0.00 0.00 0.00 56 1003.3
20260504214048 80 195 6.0 8.0 0.00 0.00 0.00 56 1003.5
20260504213544 80 190 9.0 11.0 0.00 0.00 0.00 57 1003.5
20260504213041 80 136 5.0 7.0 0.00 0.00 0.00 58 1003.3
20260504212537 81 222 8.0 13.0 0.00 0.00 0.00 57 1003.5
20260504212035 81 216 8.0 11.0 0.00 0.00 0.00 56 1003.7
20260504211531 81 237 9.0 11.0 0.00 0.00 0.00 56 1003.8
20260504211029 81 153 8.0 11.0 0.00 0.00 0.00 56 1004.0
20260504210526 81 194 7.0 9.0 0.00 0.00 0.00 55 1003.9
20260504210022 81 191 7.0 9.0 0.00 0.00 0.00 56 1004.3
20260504205520 80 185 8.0 9.0 0.00 0.00 0.00 57 1004.2
20260504205018 80 226 2.0 2.0 0.00 0.00 0.00 57 1004.5
20260504204516 80 182 2.0 3.0 0.00 0.00 0.00 56 1004.4
20260504204015 80 184 6.0 7.0 0.00 0.00 0.00 55 1004.5
20260504203512 81 182 8.0 15.0 0.00 0.00 0.00 55 1004.8
20260504203009 81 155 3.0 9.0 0.00 0.00 0.00 55 1004.6
20260504202505 81 246 5.0 8.0 0.00 0.00 0.00 53 1004.7
20260504202001 80 242 6.0 7.0 0.00 0.00 0.00 55 1004.8
20260504201459 81 106 2.0 3.0 0.00 0.00 0.00 55 1005.0
20260504200956 82 219 7.0 9.0 0.00 0.00 0.00 53 1005.2
20260504200453 82 225 4.0 6.0 0.00 0.00 0.00 53 1005.4
20260504195949 81 214 6.0 9.0 0.00 0.00 0.00 54 1005.3
20260504195445 80 254 5.0 7.0 0.00 0.00 0.00 54 1005.2
20260504194942 81 201 11.0 15.0 0.00 0.00 0.00 53 1005.5
20260504194438 81 177 3.0 6.0 0.00 0.00 0.00 52 1005.5
20260504193934 80 184 4.0 7.0 0.00 0.00 0.00 54 1005.5
20260504193432 80 184 10.0 13.0 0.00 0.00 0.00 53 1005.4
20260504192930 80 182 6.0 8.0 0.00 0.00 0.00 52 1005.9
20260504192427 80 205 9.0 14.0 0.00 0.00 0.00 54 1005.6
20260504191926 81 195 5.0 6.0 0.00 0.00 0.00 53 1005.7
20260504191424 80 197 3.0 6.0 0.00 0.00 0.00 54 1006.2
20260504190919 79 222 3.0 3.0 0.00 0.00 0.00 54 1006.3
20260504190414 79 190 4.0 6.0 0.00 0.00 0.00 54 1006.5
20260504185912 79 182 7.0 9.0 0.00 0.00 0.00 53 1006.3
20260504185409 78 227 7.0 9.0 0.00 0.00 0.00 54 1006.5
20260504184904 79 193 11.0 16.0 0.00 0.00 0.00 53 1006.5
20260504184400 79 249 6.0 9.0 0.00 0.00 0.00 54 1006.4
20260504183856 79 165 2.0 3.0 0.00 0.00 0.00 53 1006.5